This is the latest recevied weather packets stored in our database for station/object WR7DW-3. If no packets are shown the sender has not sent any weather packets the latest 10 day(s).
| Time | Temp. | Humidity | Pressure | Rain* | Wind** | Luminosity | Snow |
|---|---|---|---|---|---|---|---|
| 1777844684 | 11.67° C | 38% | 1003.3 hPa | 0 mm | - | - | - |
| 1777843784 | 11.11° C | 37% | 1003.5 hPa | 0 mm | - | - | - |
| 1777842884 | 11.11° C | 39% | 1003.8 hPa | 0 mm | - | - | - |
| 1777841984 | 10.56° C | 38% | 1003.8 hPa | 0 mm | - | - | - |
| 1777841084 | 10° C | 43% | 1004 hPa | 0 mm | - | - | - |
| 1777840184 | 10° C | 43% | 1004.1 hPa | 0 mm | - | - | - |
| 1777839284 | 10° C | 42% | 1004 hPa | 0 mm | - | - | - |
| 1777838384 | 10° C | 39% | 1004.3 hPa | 0 mm | - | - | - |
| 1777837485 | 9.44° C | 38% | 1004.6 hPa | 0 mm | - | - | - |
| 1777836584 | 9.44° C | 39% | 1004.8 hPa | 0 mm | - | - | - |
| 1777835684 | 9.44° C | 37% | 1004.9 hPa | 0 mm | - | - | - |
| 1777833884 | 8.33° C | 38% | 1005 hPa | 0 mm | - | - | - |
| 1777832984 | 8.33° C | 42% | 1005 hPa | 0 mm | - | - | - |
| 1777832084 | 7.22° C | 51% | 1005.1 hPa | 0 mm | - | - | - |
| 1777831184 | 7.22° C | 51% | 1005.2 hPa | 0 mm | - | - | - |
| 1777830284 | 6.67° C | 57% | 1005.4 hPa | 0 mm | - | - | - |
| 1777828484 | 6.67° C | 57% | 1005.5 hPa | 0 mm | - | - | - |
| 1777827584 | 5.56° C | 59% | 1005.7 hPa | 0 mm | - | - | - |
| 1777825784 | 5° C | 52% | 1005.7 hPa | 0 mm | - | - | - |
| 1777824885 | 5° C | 53% | 1005.7 hPa | 0 mm | - | - | - |
| 1777823984 | 5° C | 58% | 1005.9 hPa | 0 mm | - | - | - |
| 1777823084 | 5.56° C | 54% | 1006 hPa | 0 mm | - | - | - |
| 1777822184 | 6.11° C | 48% | 1006.1 hPa | 0 mm | - | - | - |
| 1777821284 | 6.11° C | 49% | 1006.2 hPa | 0 mm | - | - | - |
| 1777820384 | 6.11° C | 43% | 1006.4 hPa | 0 mm | - | - | - |
* Rain latest hour (hover to see other rain measurements)
** Current wind speed in m/s (hover to see current wind gust speed)